Showing default

ORBCOMM FM 119, 41180

Orbit data source: Space-Track

ORBCOMM FM 119, 41180 is a payload satellite owned by Orbcomm (US) in LEO that was launched on Tue, 22 Dec 2015 UTC via an FALCON 9 launch vehicle from the Air Force Eastern Test Range (AFETR). Payload-class satellites include a variety of spacecraft equipped with specific instruments for various scientific and technological missions. These include communications satellites like Starlink; space stations such as the ISS; scientific satellites like the Hubble; Earth observation satellites from companies like Planet Labs, Umbra, and HawkEye 360; GPS; miniature CubeSats for education and research; and military/defense satellites.

Loading next visibility...
Identifier
41180, 2015-081B
Orbit
LEO
Last TLE update
7 hours ago
Origin
Manufacturer
SNC Louisville
Mission
Non-operational Commercial Communications
Bus & Motor
SN-100A, Unknown motor
Mass
172 kg wet, 158 kg dry
Launch date (UTC)
2015-12-22 (10 years ago)
Launch vehicle
FALCON 9
Launch site
Air Force Eastern Test Range (AFETR)
Object type
Payload
Rocket body
Debris
Shape & HBR
Box + 1 Pan + 1 Ant, 13 m
Radar Cross Section
2.222 m², Medium (>0.1 m² and < 1m²)

Expand to show TLE details & history

TLE from 7 hours ago
0 ORBCOMM FM 119
1 41180U 15081B   25182.58503160  .00000414  00000-0  12547-3 0  9996
2 41180  46.9998 128.1617 0000265 130.0773 230.0135 14.58159578507820
Epoch: 2025-07-01T14:02Z
TLE epoch observation values (Epoch: 2025-07-01T14:02:26.73Z)
Latitude
-0.00006°
Longitude
-2.32811°
Altitude
699.459 km
Speed
7.508 km/s
True Right ascension
08h 32m 38s
True Declination
0° 00' 00"
Sunlit
Object was in daylight at epoch
Visualization orbit readout
Latitude
-11.39135°
Longitude
-173.02844°
Altitude
701.431 km
Speed
7.506 km/s
Apparent Right ascension
21h 10m 17s
Apparent Declination
-24° 45' 39"
Sunlit
Object is in full shadow
Visualization observer readout
Local Sidereal Time
09:10:56
Azimuth
0.558° NNE
Elevation
-74.844°
Doppler factor
1
Orbital elements
Apogee altitude
700.545 km
Perigee altitude
700.17 km
Semi-major axis
7,078.494 km
Eccentricity
0.00003
Inclination
46.9998°
RAAN
128.1617°
Arg. of periapsis
130.0773°
True anomaly
Unknown
Mean anomaly
230.0135°
Eccentric anomaly
Unknown
Mean motion
3.64445 °/min
Orbital period
98.78 mins
BSTAR
0.00012547
Loading maneuver chart data...
Loading SW <> Apogee altitude chart data...
Loading historical data...
Loading historical data...
Loading historical data...
Loading historical data...
Loading historical data...
Loading historical data...
Loading historical data...

ORBCOMM FM 119 Visibility forecast

Observer location: undefined°, undefined°

Span
Click to sort rows by Start time (UTC) header in descending order
Start Az.
Max El. time (UTC)
Max El. Az.
Max El.
End time (UTC)
End Az.
7 mins2025-07-01 22:24:40.436Z184.2° SSW2025-07-01 22:28:40.436Z128.299° SE20.613°2025-07-01 22:31:40.436Z88.562° E
8 mins2025-07-02 00:07:40.436Z242.267° WSW2025-07-02 00:11:40.436Z48.906° ENE44.397°2025-07-02 00:15:40.436Z61.485° ENE
8 mins2025-07-02 01:51:40.436Z287.268° WNW2025-07-02 01:55:40.436Z3.106° NNE31.963°2025-07-02 01:59:40.436Z59.232° ENE
7 mins2025-07-02 03:36:40.436Z311.965° NW2025-07-02 03:39:40.436Z15.382° NNE33.367°2025-07-02 03:43:40.436Z79.496° E
8 mins2025-07-02 05:19:40.436Z296.187° NW2025-07-02 05:23:40.436Z159.862° S44.312°2025-07-02 05:27:40.436Z123.917° SE
5 mins2025-07-02 07:04:40.436Z251.224° W2025-07-02 07:06:40.436Z221.308° SW17.616°2025-07-02 07:09:40.436Z183.463° SSW
|